Home > Weather > Lawrence > Past weeks

Flag for USA Past Weather in Lawrence, Kansas, USA — Yesterday and Last 2 Weeks

Now
70 °F

Clear.


Feels Like: 65 °F
Forecast: 69 / 91 °F
Wind: No wind

Location: Lawrence Municipal Airport

Current Time: Jun 27, 2016 at 12:58:37 AM

Latest Report: Jun 26, 2016 at 11:52 PM


Visibility: 8 mi

Pressure: 30.09 "Hg

Humidity: 93%

Dew Point: 68 °F

Location of LawrenceLocation

Past Weather in Lawrence — Graph

°F

Lawrence Temperature Yesterday

Maximum temperature yesterday: 93 °F (at 1:52 PM)
Minimum temperature yesterday: 70 °F (at 10:52 PM)
Average temperature yesterday: 82 °F

High & Low Weather Summary for the Past Weeks

 TemperatureHumidityPressure
High103 °F (Jun 22, 3:52 PM)100% (Jun 13, 3:52 AM)30.16 "Hg (Jun 13, 3:52 AM)
Low66 °F (Jun 24, 3:52 AM)25% (Jun 15, 4:52 PM)29.66 "Hg (Jun 14, 6:52 PM)
Average83 °F65%29.94 "Hg
* Reported Jun 11 10:52 PM — Jun 26 10:52 PM, Lawrence, Weather by CustomWeather, © 2016

Note: Actual official high and low records may vary slightly from our data, if they occured in-between our weather recording intervals... More about our weather records

Advertising

Lawrence Weather History for the Previous 24 Hours

Scroll right to see more
 ConditionsComfort  
Time TempWeatherWind HumidityBarometerVisibility
10:52 PM
Sun, Jun 26
70 °FClear.5 mph93%30.07 "Hg10 mi
9:52 PM75 °FClear.3 mph85%30.05 "Hg10 mi
8:52 PM76 °FPassing clouds.6 mph82%30.03 "Hg10 mi
7:52 PM78 °FMore clouds than sun.3 mph71%30.06 "Hg10 mi
6:52 PM79 °FPartly sunny.3 mph67%30.04 "Hg10 mi
5:52 PM79 °FLight rain. Mostly cloudy.13 mph72%30.04 "Hg10 mi
4:52 PM89 °FThundershowers. Partly sunny.7 mph53%30.01 "Hg10 mi
3:52 PM88 °FBroken clouds.7 mph55%30.01 "Hg10 mi
2:52 PM92 °FSunny.9 mph52%30.00 "Hg10 mi
1:52 PM93 °FPartly sunny.10 mph52%30.02 "Hg10 mi
12:52 PM91 °FPassing clouds.6 mph50%30.03 "Hg10 mi
11:52 AM91 °FPassing clouds.5 mph56%30.04 "Hg10 mi
10:52 AM87 °FScattered clouds.5 mph59%30.04 "Hg10 mi
9:52 AM84 °FSunny.No wind63%30.03 "Hg10 mi
8:52 AM83 °FSunny.No wind63%30.02 "Hg9 mi
7:52 AM78 °FSunny.No wind74%30.00 "Hg10 mi
6:52 AM76 °FClear.No wind77%30.00 "Hg10 mi
5:52 AM76 °FOvercast.8 mph74%30.01 "Hg10 mi
4:52 AM75 °FClear.3 mph85%29.96 "Hg10 mi
3:52 AM79 °FClear.5 mph77%29.97 "Hg10 mi
2:52 AM80 °FClear.6 mph74%29.97 "Hg10 mi
1:52 AM82 °FPassing clouds.7 mph67%29.95 "Hg10 mi
12:52 AM82 °FPassing clouds.6 mph65%29.94 "Hg10 mi
Weather by CustomWeather, © 2016

See weather overviewHow to use our weather pages